TimeCST,TemperatureF,Dew PointF,Humidity,Sea Level PressureIn,VisibilityMPH,Wind Direction,Wind SpeedMPH,Gust SpeedMPH,PrecipitationIn,Events,Conditions,WindDirDegrees,DateUTC
12:11 AM,5.0,1.4,85,30.33,10.0,Calm,Calm,-,N/A,,Clear,0,2013-03-02 06:11:00
12:32 AM,1.4,-2.2,85,30.32,10.0,Calm,Calm,-,N/A,,Clear,0,2013-03-02 06:32:00
12:52 AM,3.2,-0.4,85,30.33,10.0,Calm,Calm,-,N/A,,Clear,0,2013-03-02 06:52:00
1:11 AM,3.2,-0.4,85,30.33,10.0,Calm,Calm,-,N/A,,Scattered Clouds,0,2013-03-02 07:11:00
1:32 AM,-0.4,-4.0,85,30.33,10.0,Calm,Calm,-,N/A,,Scattered Clouds,0,2013-03-02 07:32:00
1:53 AM,-0.4,-4.0,85,30.32,10.0,Calm,Calm,-,N/A,,Scattered Clouds,0,2013-03-02 07:53:00
2:13 AM,-0.4,-4.0,85,30.33,10.0,Calm,Calm,-,N/A,,Scattered Clouds,0,2013-03-02 08:13:00
2:32 AM,-0.4,-4.0,85,30.32,10.0,Calm,Calm,-,N/A,,Scattered Clouds,0,2013-03-02 08:32:00
2:52 AM,-0.4,-5.8,78,30.32,10.0,Calm,Calm,-,N/A,,Scattered Clouds,0,2013-03-02 08:52:00
3:11 AM,-0.4,-4.0,85,30.32,10.0,Calm,Calm,-,N/A,,Scattered Clouds,0,2013-03-02 09:11:00
3:32 AM,-0.4,-5.8,78,30.32,10.0,Calm,Calm,-,N/A,,Scattered Clouds,0,2013-03-02 09:32:00
3:53 AM,-4.0,-7.6,85,30.32,10.0,Calm,Calm,-,N/A,,Scattered Clouds,0,2013-03-02 09:53:00
4:11 AM,-4.0,-7.6,85,30.32,10.0,Calm,Calm,-,N/A,,Scattered Clouds,0,2013-03-02 10:11:00
4:33 AM,-4.0,-7.6,85,30.32,10.0,Calm,Calm,-,N/A,,Scattered Clouds,0,2013-03-02 10:33:00
5:11 AM,-4.0,-7.6,85,30.32,10.0,Calm,Calm,-,N/A,,Mostly Cloudy,0,2013-03-02 11:11:00
5:52 AM,-4.0,-7.6,85,30.33,10.0,Calm,Calm,-,N/A,,Scattered Clouds,0,2013-03-02 11:52:00
6:33 AM,-5.8,-9.4,84,30.33,10.0,Calm,Calm,-,N/A,,Scattered Clouds,0,2013-03-02 12:33:00
6:53 AM,-5.8,-9.4,84,30.33,10.0,Calm,Calm,-,N/A,,Scattered Clouds,0,2013-03-02 12:53:00
7:12 AM,-5.8,-9.4,84,30.33,10.0,Calm,Calm,-,N/A,,Clear,0,2013-03-02 13:12:00
7:32 AM,-4.0,-7.6,85,30.32,10.0,Calm,Calm,-,N/A,,Clear,0,2013-03-02 13:32:00
7:53 AM,-0.4,-4.0,85,30.32,10.0,Calm,Calm,-,N/A,,Clear,0,2013-03-02 13:53:00
8:13 AM,1.4,-4.0,78,30.32,10.0,Calm,Calm,-,N/A,,Clear,0,2013-03-02 14:13:00
8:33 AM,3.2,-0.4,85,30.31,10.0,Calm,Calm,-,N/A,,Clear,0,2013-03-02 14:33:00
8:53 AM,6.8,3.2,85,30.31,10.0,Calm,Calm,-,N/A,,Clear,0,2013-03-02 14:53:00
9:13 AM,8.6,5.0,85,30.31,10.0,Calm,Calm,-,N/A,,Clear,0,2013-03-02 15:13:00
9:22 AM,10.4,5.0,79,30.30,10.0,Calm,Calm,-,N/A,,Clear,0,2013-03-02 15:22:00
9:49 AM,12.2,6.8,79,30.30,10.0,Calm,Calm,-,N/A,,Clear,0,2013-03-02 15:49:00
10:11 AM,15.8,10.4,79,30.29,10.0,Calm,Calm,-,N/A,,Clear,0,2013-03-02 16:11:00
10:32 AM,19.4,12.2,74,30.29,10.0,Calm,Calm,-,N/A,,Clear,0,2013-03-02 16:32:00
10:50 AM,21.2,10.4,63,30.28,10.0,Calm,Calm,-,N/A,,Clear,0,2013-03-02 16:50:00
11:11 AM,23.0,10.4,59,30.28,10.0,South,3.5,-,N/A,,Clear,180,2013-03-02 17:11:00
11:32 AM,23.0,10.4,59,30.27,10.0,Calm,Calm,-,N/A,,Clear,0,2013-03-02 17:32:00
11:52 AM,24.8,10.4,54,30.27,10.0,Calm,Calm,-,N/A,,Clear,0,2013-03-02 17:52:00
12:11 PM,26.6,10.4,51,30.25,10.0,SSE,3.5,-,N/A,,Clear,150,2013-03-02 18:11:00
12:32 PM,26.6,10.4,51,30.25,10.0,Calm,Calm,-,N/A,,Clear,0,2013-03-02 18:32:00
12:52 PM,28.4,8.6,43,30.24,10.0,Calm,Calm,-,N/A,,Clear,0,2013-03-02 18:52:00
1:11 PM,28.4,6.8,40,30.23,10.0,Calm,Calm,-,N/A,,Clear,0,2013-03-02 19:11:00
1:32 PM,30.2,6.8,37,30.22,10.0,East,3.5,-,N/A,,Clear,90,2013-03-02 19:32:00
1:52 PM,28.4,5.0,37,30.21,10.0,ENE,3.5,-,N/A,,Clear,70,2013-03-02 19:52:00
2:11 PM,30.2,5.0,34,30.21,10.0,Calm,Calm,-,N/A,,Clear,0,2013-03-02 20:11:00
2:33 PM,30.2,6.8,37,30.20,10.0,SSE,3.5,-,N/A,,Clear,150,2013-03-02 20:33:00
2:53 PM,30.2,5.0,34,30.20,10.0,Calm,Calm,-,N/A,,Scattered Clouds,0,2013-03-02 20:53:00
3:13 PM,30.2,8.6,40,30.20,10.0,South,3.5,-,N/A,,Scattered Clouds,190,2013-03-02 21:13:00
3:32 PM,30.2,10.4,44,30.20,10.0,Calm,Calm,-,N/A,,Clear,0,2013-03-02 21:32:00
3:53 PM,30.2,8.6,40,30.19,10.0,Calm,Calm,-,N/A,,Clear,0,2013-03-02 21:53:00
4:13 PM,30.2,10.4,44,30.19,10.0,Calm,Calm,-,N/A,,Scattered Clouds,0,2013-03-02 22:13:00
4:33 PM,28.4,6.8,40,30.19,10.0,Calm,Calm,-,N/A,,Mostly Cloudy,0,2013-03-02 22:33:00
4:53 PM,28.4,8.6,43,30.18,10.0,Calm,Calm,-,N/A,,Overcast,0,2013-03-02 22:53:00
5:13 PM,30.2,8.6,40,30.17,10.0,Calm,Calm,-,N/A,,Overcast,0,2013-03-02 23:13:00
5:31 PM,28.4,8.6,43,30.17,10.0,Calm,Calm,-,N/A,,Mostly Cloudy,0,2013-03-02 23:31:00
5:52 PM,28.4,10.4,47,30.17,10.0,Calm,Calm,-,N/A,,Mostly Cloudy,0,2013-03-02 23:52:00
6:13 PM,28.4,12.2,51,30.17,10.0,Calm,Calm,-,N/A,,Overcast,0,2013-03-03 00:13:00
6:32 PM,28.4,12.2,51,30.17,10.0,Calm,Calm,-,N/A,,Overcast,0,2013-03-03 00:32:00
6:53 PM,26.6,10.4,51,30.18,10.0,Calm,Calm,-,N/A,,Overcast,0,2013-03-03 00:53:00
7:13 PM,26.6,12.2,55,30.17,10.0,Calm,Calm,-,N/A,,Overcast,0,2013-03-03 01:13:00
7:32 PM,26.6,12.2,55,30.17,10.0,Calm,Calm,-,N/A,,Overcast,0,2013-03-03 01:32:00
7:53 PM,24.8,10.4,54,30.16,10.0,Calm,Calm,-,N/A,,Overcast,0,2013-03-03 01:53:00
8:13 PM,23.0,10.4,59,30.16,10.0,Calm,Calm,-,N/A,,Overcast,0,2013-03-03 02:13:00
8:32 PM,23.0,12.2,63,30.16,10.0,Calm,Calm,-,N/A,,Overcast,0,2013-03-03 02:32:00
8:53 PM,23.0,12.2,63,30.16,10.0,Calm,Calm,-,N/A,,Overcast,0,2013-03-03 02:53:00
9:13 PM,23.0,12.2,63,30.16,10.0,Calm,Calm,-,N/A,,Overcast,0,2013-03-03 03:13:00
9:33 PM,23.0,12.2,63,30.16,10.0,Calm,Calm,-,N/A,,Overcast,0,2013-03-03 03:33:00
9:53 PM,21.2,12.2,68,30.15,10.0,Calm,Calm,-,N/A,,Overcast,0,2013-03-03 03:53:00
10:12 PM,21.2,12.2,68,30.15,10.0,Calm,Calm,-,N/A,,Overcast,0,2013-03-03 04:12:00
10:32 PM,19.4,12.2,74,30.14,10.0,Calm,Calm,-,N/A,,Scattered Clouds,0,2013-03-03 04:32:00
10:52 PM,19.4,10.4,68,30.14,10.0,Calm,Calm,-,N/A,,Clear,0,2013-03-03 04:52:00
11:13 PM,15.8,10.4,79,30.14,10.0,Calm,Calm,-,N/A,,Scattered Clouds,0,2013-03-03 05:13:00
11:32 PM,15.8,8.6,73,30.14,10.0,ESE,4.6,-,N/A,,Overcast,120,2013-03-03 05:32:00
11:52 PM,19.4,8.6,63,30.13,10.0,ESE,3.5,-,N/A,,Overcast,120,2013-03-03 05:52:00